#timestamp,LO_Frequency,Hit 
1616317215.8,286046998.3,N
1616317235.7,286046996.9,P
1616317255.5,286046998.6,N
1616317275.3,286046998.7,N
1616317295.2,286046999.1,N
1616317315.9,286046996.9,P
1616317335.7,286046998.7,N
1616317355.6,286046998.3,N
1616317375.4,286047001.1,N
1616317395.2,286047001.2,N
1616317415.1,286046998.1,N
1616317416.0,286046998.1,N
1616317435.8,286046998.5,N
1616317455.6,286046998.6,N
1616317475.5,286046998.4,N
1616317495.3,286046999.1,N
1616317515.1,286046999.0,N
1616317535.9,286046996.7,N
1616317555.7,286046996.9,N
1616317575.5,286046998.8,N
1616317595.4,286046996.7,N
1616317615.2,286046996.5,N
1616317635.0,286046996.6,N
1616317635.9,286046996.6,N
1616317655.8,286046999.5,N
1616317675.6,286046996.9,N
1616317695.4,286046997.1,N
1616317715.2,286046996.8,N
1616317735.1,286046997.1,N
1616317736.0,286046997.1,N
1616317755.8,286046997.3,N
1616317775.7,286046996.5,N
1616317795.5,286046996.7,N
1616317815.3,286046996.5,N
1616317835.1,286046997.5,N
1616317855.9,286046996.8,N
1616317875.7,286046999.6,N
1616317895.6,286046995.0,P
1616317915.4,286046998.2,N
1616317935.2,286046998.7,N
1616317955.0,286047000.7,N
1616317956.0,286047000.7,N
1616317975.8,286046998.6,N
1616317995.6,286047001.2,N
1616318015.4,286046998.6,N
1616318035.3,286046999.4,N
1616318055.1,286046999.3,N
1616318075.8,286046999.5,N
1616318095.7,286046996.6,N
1616318115.5,286046998.2,N
1616318135.3,286046998.9,N
1616318155.2,286046996.6,N
1616318175.9,286046998.4,N
1616318195.7,286046998.5,N
1616318215.6,286047000.2,N
1616318235.4,286047002.1,N
1616318255.2,286047001.4,N
1616318275.1,286047005.2,P
1616318276.0,286047005.2,N
1616318295.8,286047008.9,P
1616318315.6,286047009.1,N
1616318335.5,286047008.6,N
1616318355.3,286047010.7,P
1616318375.1,286047003.7,N
1616318395.9,286047004.7,N
1616318415.7,286047005.8,N
1616318435.5,286047005.9,N
1616318455.4,286047006.0,N
1616318475.2,286047004.9,N
1616318495.0,286047005.8,N
1616318496.0,286047005.8,P
1616318515.8,286047000.6,P
1616318535.6,286046998.2,N
1616318555.4,286046998.3,N
1616318575.3,286046998.8,N
1616318595.1,286046999.0,N
1616318615.8,286046998.7,N
1616318635.7,286046999.2,N
1616318655.5,286046998.7,N
1616318675.3,286046998.6,N
1616318695.2,286046998.6,N
1616318715.9,286047001.1,N
1616318735.7,286046999.0,N
1616318755.6,286047000.7,N
1616318775.4,286046999.0,N
1616318795.2,286046999.3,N
1616318815.1,286046998.4,N
1616318816.0,286046998.4,N
1616318835.8,286046999.2,N
1616318855.6,286046998.4,N
1616318875.5,286046996.5,N
1616318895.3,286046997.2,N
1616318915.1,286046999.0,N
1616318935.9,286046999.2,N
1616318955.7,286046999.5,N
1616318975.5,286046997.4,N
1616318995.3,286046997.4,N
1616319015.2,286046997.0,N
1616319035.0,286046997.1,N
1616319035.9,286046997.1,N
1616319055.7,286046997.3,N
1616319075.6,286046995.4,P
1616319095.4,286046997.4,N
1616319115.3,286046999.5,N
1616319135.1,286046999.6,N
1616319136.0,286046999.6,N
1616319155.8,286046996.5,N
1616319175.7,286046995.1,P
1616319195.5,286046996.5,N
1616319215.3,286046998.3,N
1616319235.2,286046997.2,N
1616319255.9,286046998.9,N
1616319275.7,286046999.5,N
1616319295.6,286046995.3,P
1616319315.4,286046998.4,N
1616319335.2,286046998.9,N
1616319355.1,286046996.5,N
1616319356.0,286046996.5,N
1616319375.8,286046996.6,N
1616319395.6,286046996.7,N
1616319415.5,286046996.9,N
1616319435.3,286046997.5,N
1616319455.1,286046995.4,P
1616319475.9,286047002.8,P
1616319495.7,286047000.6,N
1616319515.5,286047001.0,N
1616319535.4,286047001.1,N
1616319555.2,286046999.1,N
1616319575.0,286046998.9,N
1616319575.9,286046998.9,N
1616319595.8,286046998.4,N
1616319615.6,286046998.8,N
1616319635.4,286046998.4,N
1616319655.3,286046996.5,N
1616319675.1,286046999.6,N
1616319676.0,286046999.6,N
1616319695.8,286046997.0,N
1616319715.7,286046997.6,N
1616319735.5,286046996.9,N
1616319755.3,286046998.0,N
1616319775.2,286046997.4,N
1616319795.9,286046995.0,N
1616319815.7,286046998.0,N
1616319835.5,286046995.5,N
1616319855.4,286046997.6,N
1616319875.2,286046993.8,P
1616319895.1,286046995.1,N
1616319896.0,286046995.1,N
1616319915.8,286046997.6,N
1616319935.6,286046995.2,N
1616319955.5,286046995.8,N
1616319975.3,286046997.9,N
1616319995.1,286046995.8,N
1616320015.8,286046995.8,N
1616320035.7,286046995.3,P
1616320055.5,286047001.2,P
1616320075.4,286047001.0,N
1616320095.2,286046998.4,N
1616320115.0,286046998.3,N
1616320115.9,286046998.3,N
1616320135.8,286046996.5,N
1616320155.6,286046999.0,N
1616320175.4,286046999.3,N
1616320195.3,286046996.7,N
1616320215.1,286046997.8,N
1616320216.0,286046997.8,N
1616320235.8,286046996.8,N
1616320255.7,286046996.7,N
1616320275.5,286046997.8,N
1616320295.3,286046997.9,N
1616320315.1,286046996.8,N
1616320335.9,286046995.0,P
1616320355.7,286046998.3,N
1616320375.6,286046999.6,N
1616320395.4,286046997.0,N
1616320415.2,286046999.1,N
1616320435.0,286046997.0,N
1616320436.0,286046997.0,N
1616320455.8,286046996.6,N
1616320475.6,286046997.7,N
1616320495.4,286046997.3,N
1616320515.3,286046997.8,N
1616320535.1,286046997.5,N
1616320555.8,286046997.8,N
1616320575.7,286046995.6,P
1616320595.5,286046998.2,N
1616320615.3,286047000.8,N
1616320635.2,286046999.1,N
1616320655.0,286046996.9,N
1616320655.9,286046996.9,N
1616320675.7,286046999.2,N
1616320695.6,286046999.5,N
1616320715.4,286046996.5,N
1616320735.2,286046997.5,N
1616320755.1,286046997.8,N
1616320756.0,286046997.8,N
1616320775.8,286046996.6,N
1616320795.6,286046997.6,N
